Hoonah, AK

12:20 AM AKST on February 24, 2017 (GMT -0900)
Hoonah

Weather History for PAOH - April, 2013

Change the Weather History Date:

Thursday, April 25, 2013

  Actual Average Record
Temperature  
Mean Temperature 40 °F -  
Max Temperature 43 °F 48 °F 69 °F (2003)
Min Temperature 37 °F 31 °F 24 °F (2002)
Degree Days  
Heating Degree Days 25    
Moisture  
Dew Point 39 °F    
Average Humidity 92    
Maximum Humidity 100    
Minimum Humidity 74    
Precipitation  
Precipitation 0.12 in - - ()
Sea Level Pressure  
Sea Level Pressure 29.57 in    
Wind  
Wind Speed 5 mph (NW)    
Max Wind Speed 9 mph    
Max Gust Speed -    
Visibility 8 miles    
Events Rain    
Averages and records for this station are not official NWS values.
T = Trace of Precipitation, MM = Missing Value Source: NWS Daily Summary

Daily Weather History Graph

Daily Weather History Graph

Search for Another Location

Airport or City:

Trip Planner

Search our weather history database for the weather conditions in past years. The results will help you decide how hot, cold, wet, or windy it might be!

Date:

Astronomy

Apr. 25, 2013 Rise Set
Actual Time 5:22 AM AKDT 8:37 PM AKDT
Civil Twilight 4:36 AM AKDT 9:24 PM AKDT
Nautical Twilight 3:32 AM AKDT 10:29 PM AKDT
Astronomical Twilight 1:44 AM AKDT 12:28 AM AKDT
Moon 9:09 PM AKDT (4/25) 5:11 AM AKDT (4/25)
Length of Visible Light 16h 47m
Length of Day
15h 14m
Full, 100% of the Moon is Illuminated
Apr 25
Full
May 2
Last Quarter
May 9
New
May 17
First Quarter
May 24
Full

Hourly Weather History & Observations

Time (AKDT) Temp. Windchill Dew Point Humidity Pressure Visibility Wind Dir Wind Speed Gust Speed Precip Events Conditions
12:56 AM 43.9 °F 39.9 °F 36.9 °F 76% 29.75 in 10.0 mi West 6.9 mph - N/A   Mostly Cloudy
1:56 AM 43.9 °F 39.3 °F 36.9 °F 76% 29.72 in 10.0 mi SW 8.1 mph - N/A   Overcast
2:56 AM 43.9 °F 40.5 °F 36.9 °F 76% 29.70 in 10.0 mi WNW 5.8 mph - N/A   Mostly Cloudy
3:56 AM 42.8 °F 40.1 °F 37.4 °F 81% 29.66 in 10.0 mi WNW 4.6 mph - N/A   Overcast
4:56 AM 41.9 °F 37.5 °F 36.9 °F 82% 29.64 in 10.0 mi West 6.9 mph - 0.00 in   Overcast
5:56 AM 43.9 °F 41.3 °F 36.0 °F 74% 29.60 in 10.0 mi WNW 4.6 mph - N/A   Overcast
6:56 AM 43.9 °F 40.5 °F 36.9 °F 76% 29.60 in 10.0 mi Variable 5.8 mph - 0.00 in Rain Light Rain
7:56 AM 41.9 °F 38.2 °F 37.9 °F 86% 29.59 in 5.0 mi WNW 5.8 mph - 0.00 in Rain Light Rain
8:24 AM 41.0 °F 36.4 °F 37.4 °F 87% 29.58 in 5.0 mi WNW 6.9 mph - 0.00 in Rain Light Rain
8:56 AM 41.0 °F 38.0 °F 38.8 °F 92% 29.58 in 4.0 mi West 4.6 mph - 0.01 in Rain Light Rain
9:56 AM 39.2 °F - 39.2 °F 100% 29.57 in 4.0 mi Calm Calm - N/A Rain Light Rain
10:56 AM 38.8 °F 36.5 °F 37.9 °F 97% 29.56 in 6.0 mi East 3.5 mph - 0.05 in Rain Light Rain
11:56 AM 39.9 °F 37.8 °F 38.8 °F 96% 29.56 in 7.0 mi Variable 3.5 mph - 0.00 in Rain Light Rain
12:31 PM 39.2 °F 37.0 °F 39.2 °F 100% 29.55 in 7.0 mi Variable 3.5 mph - 0.00 in Rain Light Rain
12:36 PM 39.2 °F 35.9 °F 39.2 °F 100% 29.55 in 7.0 mi WNW 4.6 mph - 0.00 in Rain Light Rain
12:56 PM 39.2 °F 37.0 °F 39.2 °F 100% 29.55 in 6.0 mi WNW 3.5 mph - N/A Rain Light Rain
1:11 PM 39.2 °F - 39.2 °F 100% 29.55 in 5.0 mi Calm Calm - 0.00 in Rain Light Rain
1:56 PM 41.0 °F - 38.8 °F 92% 29.56 in 8.0 mi Calm Calm - 0.02 in Rain Light Rain
2:56 PM 41.0 °F 39.0 °F 39.9 °F 96% 29.55 in 7.0 mi NW 3.5 mph - 0.02 in Rain Light Rain
3:14 PM 41.0 °F 39.0 °F 39.2 °F 93% 29.55 in 7.0 mi NNW 3.5 mph - 0.01 in Rain Light Rain
3:56 PM 41.0 °F - 41.0 °F 100% 29.54 in 6.0 mi Calm Calm - N/A Rain Light Rain
4:18 PM 41.0 °F 39.0 °F 41.0 °F 100% 29.53 in 9.0 mi Variable 3.5 mph - 0.00 in Rain Light Rain
4:56 PM 41.0 °F 37.1 °F 39.9 °F 96% 29.54 in 10.0 mi West 5.8 mph - 0.00 in Rain Light Rain
5:56 PM 41.9 °F - 39.9 °F 93% 29.54 in 10.0 mi Calm Calm - 0.00 in Rain Light Rain
6:13 PM 42.8 °F - 39.2 °F 87% 29.53 in 10.0 mi Calm Calm - 0.00 in   Overcast
6:56 PM 42.8 °F - 39.2 °F 87% 29.53 in 10.0 mi Calm Calm - N/A   Overcast
7:56 PM 41.9 °F 40.0 °F 41.9 °F 100% 29.53 in 10.0 mi ENE 3.5 mph - N/A   Mostly Cloudy
8:56 PM 41.0 °F - 41.0 °F 100% 29.52 in 10.0 mi Calm Calm - N/A   Mostly Cloudy
9:20 PM 39.2 °F 35.9 °F 39.2 °F 100% 29.52 in 10.0 mi East 4.6 mph - N/A   Overcast
9:56 PM 39.2 °F 33.6 °F 39.2 °F 100% 29.52 in 10.0 mi East 8.1 mph - N/A   Overcast
10:35 PM 39.2 °F 33.0 °F 39.2 °F 100% 29.53 in 9.0 mi East 9.2 mph - N/A   Overcast
10:56 PM 38.8 °F 32.6 °F 37.9 °F 97% 29.54 in 7.0 mi East 9.2 mph - 0.00 in Rain Light Rain
11:34 PM 37.4 °F 32.1 °F 37.4 °F 100% 29.52 in 7.0 mi East 6.9 mph - 0.01 in Rain Light Rain
11:56 PM 37.9 °F 32.7 °F 37.9 °F 100% 29.52 in 8.0 mi ESE 6.9 mph - 0.02 in Rain Light Rain